Location: Mountain Grove
(34.0887°N, 86.6172°W)
Time: 21:54:36
(UTC+00:00)

Cosmos 1315 Rocket - Pass Details

Date: 14 July 2020
Orbit: 530 x 568 km, 81.2° (Epoch: 08 August)

Event Time Altitude Azimuth Distance (km) Brightness Sun altitude
Rises 02:34:13 0° 352° (N) 2,768 7.2 -17.0°
Reaches altitude 10° 02:36:24 10° 353° (N) 1,869 6.2 -17.4°
Maximum altitude 02:40:33 85° 82° (E) 575 2.8 -18.0°
Enters shadow 02:42:10 36° 168° (SSE) 905 3.5 -18.2°
